| time (UTC) | temp C | wind direction | speed KPH | gust KPH | rain 1hr cm | rain 24hr cm | rain mn cm | humidity % | barometer mb |
| 20260505140409 | 24 | 164 | 9.7 | 12.9 | 0.00 | 0.00 | 0.00 | 82 | 1009.3 |
| 20260505124817 | 23 | 138 | 3.2 | 4.8 | 0.00 | 0.00 | 0.00 | 84 | 1009.0 |
| 20260505124314 | 23 | 241 | 1.6 | 3.2 | 0.00 | 0.00 | 0.00 | 84 | 1009.0 |
| 20260505123810 | 23 | 150 | 4.8 | 8.0 | 0.00 | 0.00 | 0.00 | 85 | 1009.0 |
| 20260505123307 | 23 | 314 | 0.0 | 0.0 | 0.00 | 0.00 | 0.00 | 85 | 1009.0 |
| 20260505122803 | 23 | 258 | 1.6 | 1.6 | 0.00 | 0.00 | 0.00 | 85 | 1009.0 |
| 20260505122301 | 23 | 243 | 4.8 | 4.8 | 0.00 | 0.00 | 0.00 | 85 | 1009.0 |
| 20260505121757 | 23 | 280 | 3.2 | 4.8 | 0.00 | 0.00 | 0.00 | 85 | 1008.6 |
| 20260505121254 | 23 | 189 | 3.2 | 3.2 | 0.00 | 0.00 | 0.00 | 85 | 1008.6 |
| 20260505120750 | 23 | 220 | 4.8 | 4.8 | 0.00 | 0.00 | 0.00 | 85 | 1008.6 |
| 20260505120247 | 23 | 124 | 4.8 | 11.3 | 0.00 | 0.00 | 0.00 | 85 | 1008.6 |
| 20260505115745 | 23 | 347 | 1.6 | 3.2 | 0.00 | 0.00 | 0.00 | 85 | 1008.6 |
| 20260505115243 | 22 | 206 | 4.8 | 8.0 | 0.00 | 0.00 | 0.00 | 85 | 1009.0 |
| 20260505114740 | 22 | 150 | 1.6 | 3.2 | 0.00 | 0.00 | 0.00 | 85 | 1009.0 |
| 20260505114236 | 22 | 216 | 1.6 | 3.2 | 0.00 | 0.00 | 0.00 | 85 | 1009.0 |
| 20260505113733 | 22 | 224 | 1.6 | 3.2 | 0.00 | 0.00 | 0.00 | 85 | 1008.6 |
| 20260505113230 | 22 | 209 | 1.6 | 1.6 | 0.00 | 0.00 | 0.00 | 84 | 1008.6 |
| 20260505112726 | 22 | 226 | 1.6 | 3.2 | 0.00 | 0.00 | 0.00 | 84 | 1008.3 |
| 20260505112224 | 22 | 230 | 1.6 | 1.6 | 0.00 | 0.00 | 0.00 | 84 | 1008.3 |
| 20260505111723 | 22 | 264 | 0.0 | 1.6 | 0.00 | 0.00 | 0.00 | 84 | 1008.3 |
| 20260505111220 | 22 | 154 | 8.0 | 11.3 | 0.00 | 0.00 | 0.00 | 84 | 1008.3 |
| 20260505110715 | 22 | 263 | 1.6 | 3.2 | 0.00 | 0.00 | 0.00 | 84 | 1008.6 |
| 20260505110214 | 22 | 284 | 1.6 | 1.6 | 0.00 | 0.00 | 0.00 | 84 | 1008.3 |
| 20260505102149 | 22 | 159 | 6.4 | 8.0 | 0.00 | 0.00 | 0.00 | 85 | 1008.6 |
| 20260505101647 | 22 | 179 | 1.6 | 3.2 | 0.00 | 0.00 | 0.00 | 85 | 1008.6 |
| 20260505101143 | 22 | 273 | 0.0 | 1.6 | 0.00 | 0.00 | 0.00 | 85 | 1009.0 |
| 20260505100639 | 22 | 212 | 4.8 | 8.0 | 0.00 | 0.00 | 0.00 | 85 | 1009.0 |
| 20260505100137 | 22 | 223 | 0.0 | 1.6 | 0.00 | 0.00 | 0.00 | 85 | 1009.0 |
| 20260505095632 | 22 | 37 | 0.0 | 1.6 | 0.00 | 0.00 | 0.00 | 85 | 1008.6 |
| 20260505095130 | 22 | 27 | 3.2 | 3.2 | 0.00 | 0.00 | 0.00 | 85 | 1008.6 |
| 20260505094626 | 22 | 181 | 1.6 | 1.6 | 0.00 | 0.00 | 0.00 | 85 | 1008.6 |
| 20260505094122 | 22 | 140 | 1.6 | 3.2 | 0.00 | 0.00 | 0.00 | 85 | 1008.6 |
| 20260505093619 | 22 | 171 | 3.2 | 4.8 | 0.00 | 0.00 | 0.00 | 86 | 1009.0 |
| 20260505093116 | 22 | 237 | 1.6 | 1.6 | 0.00 | 0.00 | 0.00 | 86 | 1009.0 |
| 20260505092613 | 22 | 225 | 4.8 | 4.8 | 0.00 | 0.00 | 0.00 | 86 | 1009.0 |
| 20260505092112 | 22 | 191 | 3.2 | 3.2 | 0.00 | 0.00 | 0.00 | 86 | 1008.6 |
| 20260505091608 | 21 | 246 | 3.2 | 3.2 | 0.00 | 0.00 | 0.00 | 86 | 1009.0 |
| 20260505091106 | 21 | 261 | 0.0 | 0.0 | 0.00 | 0.00 | 0.00 | 87 | 1008.6 |
| 20260505090604 | 21 | 119 | 1.6 | 3.2 | 0.00 | 0.00 | 0.00 | 86 | 1009.0 |
| 20260505085559 | 21 | 255 | 1.6 | 1.6 | 0.00 | 0.00 | 0.00 | 86 | 1009.0 |
| 20260505085057 | 21 | 206 | 1.6 | 4.8 | 0.00 | 0.00 | 0.00 | 86 | 1009.0 |
| 20260505084555 | 21 | 119 | 3.2 | 4.8 | 0.00 | 0.00 | 0.00 | 85 | 1009.0 |
| 20260505084053 | 21 | 336 | 0.0 | 0.0 | 0.00 | 0.00 | 0.00 | 85 | 1009.3 |
| 20260505083550 | 21 | 242 | 1.6 | 3.2 | 0.00 | 0.00 | 0.00 | 85 | 1009.3 |
| 20260505083046 | 21 | 220 | 1.6 | 1.6 | 0.00 | 0.00 | 0.00 | 85 | 1009.0 |
| 20260505082542 | 21 | 272 | 1.6 | 3.2 | 0.00 | 0.00 | 0.00 | 85 | 1009.0 |
| 20260505082039 | 21 | 282 | 3.2 | 4.8 | 0.00 | 0.00 | 0.00 | 85 | 1009.0 |
| 20260505081535 | 21 | 243 | 1.6 | 3.2 | 0.00 | 0.00 | 0.00 | 85 | 1009.3 |
| 20260505081033 | 21 | 129 | 1.6 | 1.6 | 0.00 | 0.00 | 0.00 | 85 | 1009.3 |
| 20260505080529 | 21 | 223 | 1.6 | 1.6 | 0.00 | 0.00 | 0.00 | 85 | 1009.3 |
| 20260505080026 | 21 | 220 | 1.6 | 1.6 | 0.00 | 0.00 | 0.00 | 85 | 1009.3 |
| 20260505075522 | 21 | 240 | 4.8 | 8.0 | 0.00 | 0.00 | 0.00 | 85 | 1009.3 |
| 20260505075018 | 21 | 132 | 1.6 | 1.6 | 0.00 | 0.00 | 0.00 | 85 | 1009.3 |
| 20260505074516 | 21 | 185 | 1.6 | 1.6 | 0.00 | 0.00 | 0.00 | 84 | 1009.3 |
| 20260505074013 | 21 | 168 | 3.2 | 4.8 | 0.00 | 0.00 | 0.00 | 84 | 1009.7 |
| 20260505073510 | 21 | 184 | 1.6 | 3.2 | 0.00 | 0.00 | 0.00 | 84 | 1009.3 |
| 20260505073009 | 21 | 279 | 3.2 | 4.8 | 0.00 | 0.00 | 0.00 | 84 | 1009.7 |
| 20260505072504 | 21 | 154 | 3.2 | 4.8 | 0.00 | 0.00 | 0.00 | 84 | 1009.7 |
| 20260505072000 | 21 | 170 | 1.6 | 1.6 | 0.00 | 0.00 | 0.00 | 84 | 1009.7 |
| 20260505071455 | 21 | 195 | 1.6 | 3.2 | 0.00 | 0.00 | 0.00 | 84 | 1009.7 |
| 20260505070954 | 21 | 178 | 3.2 | 4.8 | 0.00 | 0.00 | 0.00 | 84 | 1009.7 |
| 20260505070450 | 21 | 186 | 1.6 | 1.6 | 0.00 | 0.00 | 0.00 | 84 | 1010.0 |
| 20260505065946 | 21 | 189 | 3.2 | 4.8 | 0.00 | 0.00 | 0.00 | 84 | 1009.7 |
| 20260505065443 | 21 | 163 | 6.4 | 9.7 | 0.00 | 0.00 | 0.00 | 84 | 1010.0 |
| 20260505064940 | 21 | 154 | 4.8 | 4.8 | 0.00 | 0.00 | 0.00 | 83 | 1010.0 |
| 20260505064437 | 21 | 262 | 0.0 | 1.6 | 0.00 | 0.00 | 0.00 | 83 | 1010.0 |
| 20260505063935 | 21 | 283 | 1.6 | 1.6 | 0.00 | 0.00 | 0.00 | 83 | 1010.0 |
| 20260505063431 | 21 | 254 | 1.6 | 1.6 | 0.00 | 0.00 | 0.00 | 83 | 1010.0 |
| 20260505062928 | 21 | 168 | 3.2 | 3.2 | 0.00 | 0.00 | 0.00 | 83 | 1010.0 |
| 20260505062425 | 21 | 268 | 3.2 | 3.2 | 0.00 | 0.00 | 0.00 | 82 | 1010.0 |
| 20260505061921 | 21 | 133 | 4.8 | 4.8 | 0.00 | 0.00 | 0.00 | 82 | 1010.0 |
| 20260505061420 | 21 | 162 | 1.6 | 1.6 | 0.00 | 0.00 | 0.00 | 82 | 1010.0 |
| 20260505060917 | 21 | 230 | 3.2 | 3.2 | 0.00 | 0.00 | 0.00 | 82 | 1010.7 |
| 20260505060414 | 21 | 195 | 8.0 | 12.9 | 0.00 | 0.00 | 0.00 | 82 | 1010.3 |
| 20260505055910 | 21 | 247 | 1.6 | 3.2 | 0.00 | 0.00 | 0.00 | 82 | 1010.3 |
| 20260505055406 | 21 | 162 | 4.8 | 4.8 | 0.00 | 0.00 | 0.00 | 82 | 1010.3 |
| 20260505054903 | 21 | 172 | 1.6 | 3.2 | 0.00 | 0.00 | 0.00 | 81 | 1010.3 |
| 20260505054400 | 21 | 150 | 1.6 | 3.2 | 0.00 | 0.00 | 0.00 | 81 | 1010.3 |
| 20260505053859 | 21 | 195 | 3.2 | 3.2 | 0.00 | 0.00 | 0.00 | 81 | 1010.7 |
| 20260505053355 | 21 | 235 | 3.2 | 4.8 | 0.00 | 0.00 | 0.00 | 81 | 1010.7 |
| 20260505052852 | 21 | 204 | 1.6 | 3.2 | 0.00 | 0.00 | 0.00 | 80 | 1010.7 |
| 20260505052349 | 21 | 156 | 0.0 | 3.2 | 0.00 | 0.00 | 0.00 | 80 | 1010.7 |
| 20260505051846 | 21 | 120 | 1.6 | 1.6 | 0.00 | 0.00 | 0.00 | 80 | 1011.0 |
| 20260505051343 | 21 | 266 | 3.2 | 4.8 | 0.00 | 0.00 | 0.00 | 79 | 1010.7 |
| 20260505050841 | 21 | 225 | 3.2 | 3.2 | 0.00 | 0.00 | 0.00 | 79 | 1010.7 |
| 20260505050340 | 21 | 149 | 3.2 | 3.2 | 0.00 | 0.00 | 0.00 | 79 | 1010.7 |
| 20260505041307 | 22 | 166 | 4.8 | 4.8 | 0.00 | 0.00 | 0.00 | 75 | 1010.7 |
| 20260505040804 | 22 | 210 | 1.6 | 3.2 | 0.00 | 0.00 | 0.00 | 75 | 1011.0 |
| 20260505040301 | 22 | 126 | 6.4 | 9.7 | 0.00 | 0.00 | 0.00 | 74 | 1010.7 |
| 20260505035758 | 22 | 156 | 4.8 | 4.8 | 0.00 | 0.00 | 0.00 | 74 | 1011.0 |
| 20260505035254 | 22 | 147 | 8.0 | 11.3 | 0.00 | 0.00 | 0.00 | 74 | 1011.0 |
| 20260505034751 | 22 | 153 | 6.4 | 8.0 | 0.00 | 0.00 | 0.00 | 74 | 1010.7 |
| 20260505034248 | 22 | 282 | 6.4 | 8.0 | 0.00 | 0.00 | 0.00 | 74 | 1011.0 |
| 20260505033744 | 22 | 151 | 4.8 | 8.0 | 0.00 | 0.00 | 0.00 | 73 | 1011.3 |
| 20260505033242 | 22 | 58 | 1.6 | 1.6 | 0.00 | 0.00 | 0.00 | 73 | 1011.3 |
| 20260505032740 | 22 | 264 | 1.6 | 3.2 | 0.00 | 0.00 | 0.00 | 73 | 1011.3 |
| 20260505032236 | 22 | 161 | 8.0 | 12.9 | 0.00 | 0.00 | 0.00 | 73 | 1011.3 |
| 20260505031733 | 23 | 205 | 8.0 | 11.3 | 0.00 | 0.00 | 0.00 | 72 | 1011.3 |
| 20260505031229 | 23 | 262 | 4.8 | 8.0 | 0.00 | 0.00 | 0.00 | 72 | 1011.0 |
| 20260505030726 | 23 | 132 | 1.6 | 1.6 | 0.00 | 0.00 | 0.00 | 72 | 1011.0 |
| 20260505030223 | 23 | 236 | 4.8 | 8.0 | 0.00 | 0.00 | 0.00 | 72 | 1011.0 |
| 20260505025718 | 22 | 238 | 4.8 | 8.0 | 0.00 | 0.00 | 0.00 | 72 | 1011.0 |
| 20260505025217 | 22 | 197 | 3.2 | 4.8 | 0.00 | 0.00 | 0.00 | 72 | 1011.0 |
| 20260505024715 | 23 | 122 | 4.8 | 11.3 | 0.00 | 0.00 | 0.00 | 72 | 1011.0 |
| 20260505024211 | 23 | 268 | 0.0 | 1.6 | 0.00 | 0.00 | 0.00 | 72 | 1011.3 |
| 20260505023709 | 23 | 114 | 1.6 | 3.2 | 0.00 | 0.00 | 0.00 | 72 | 1011.0 |
| 20260505023206 | 23 | 173 | 11.3 | 14.5 | 0.00 | 0.00 | 0.00 | 71 | 1011.0 |
| 20260505022704 | 23 | 127 | 6.4 | 9.7 | 0.00 | 0.00 | 0.00 | 71 | 1011.0 |
| 20260505022200 | 23 | 293 | 3.2 | 4.8 | 0.00 | 0.00 | 0.00 | 71 | 1011.0 |
| 20260505021657 | 23 | 242 | 4.8 | 4.8 | 0.00 | 0.00 | 0.00 | 71 | 1010.7 |
| 20260505021154 | 23 | 197 | 1.6 | 3.2 | 0.00 | 0.00 | 0.00 | 71 | 1010.7 |
| 20260505020649 | 23 | 136 | 4.8 | 4.8 | 0.00 | 0.00 | 0.00 | 70 | 1011.0 |
| 20260505020145 | 23 | 184 | 3.2 | 3.2 | 0.00 | 0.00 | 0.00 | 70 | 1010.7 |
| 20260505015643 | 23 | 261 | 8.0 | 11.3 | 0.00 | 0.00 | 0.00 | 70 | 1010.7 |
| 20260505015139 | 23 | 193 | 4.8 | 8.0 | 0.00 | 0.00 | 0.00 | 70 | 1010.7 |
| 20260505014636 | 23 | 176 | 8.0 | 11.3 | 0.00 | 0.00 | 0.00 | 70 | 1010.3 |
| 20260505014133 | 23 | 148 | 14.5 | 17.7 | 0.00 | 0.00 | 0.00 | 71 | 1010.3 |
| 20260505013631 | 23 | 191 | 0.0 | 1.6 | 0.00 | 0.00 | 0.00 | 71 | 1010.7 |
| 20260505013128 | 23 | 210 | 4.8 | 8.0 | 0.00 | 0.00 | 0.00 | 70 | 1010.3 |
| 20260505012626 | 23 | 177 | 4.8 | 4.8 | 0.00 | 0.00 | 0.00 | 70 | 1010.7 |
| 20260505012122 | 23 | 163 | 4.8 | 8.0 | 0.00 | 0.00 | 0.00 | 70 | 1010.7 |
| 20260505011618 | 23 | 253 | 1.6 | 4.8 | 0.00 | 0.00 | 0.00 | 69 | 1010.7 |
| 20260505011116 | 23 | 212 | 3.2 | 3.2 | 0.00 | 0.00 | 0.00 | 69 | 1010.7 |
| 20260505010610 | 23 | 243 | 1.6 | 1.6 | 0.00 | 0.00 | 0.00 | 68 | 1010.7 |
| 20260505005558 | 23 | 176 | 8.0 | 9.7 | 0.00 | 0.00 | 0.00 | 67 | 1010.7 |
| 20260505005055 | 24 | 162 | 1.6 | 1.6 | 0.00 | 0.00 | 0.00 | 66 | 1010.3 |
| 20260505004552 | 24 | 96 | 3.2 | 8.0 | 0.00 | 0.00 | 0.00 | 66 | 1010.3 |
| 20260505004049 | 24 | 211 | 3.2 | 8.0 | 0.00 | 0.00 | 0.00 | 66 | 1010.3 |
| 20260505003547 | 24 | 147 | 4.8 | 4.8 | 0.00 | 0.00 | 0.00 | 65 | 1010.3 |
| 20260505003044 | 24 | 171 | 6.4 | 8.0 | 0.00 | 0.00 | 0.00 | 65 | 1010.3 |
| 20260505002543 | 24 | 247 | 4.8 | 4.8 | 0.00 | 0.00 | 0.00 | 65 | 1010.3 |
| 20260505002038 | 24 | 138 | 6.4 | 9.7 | 0.00 | 0.00 | 0.00 | 65 | 1010.3 |
| 20260505001534 | 24 | 14 | 1.6 | 1.6 | 0.00 | 0.00 | 0.00 | 65 | 1010.3 |
| 20260505001031 | 25 | 151 | 8.0 | 9.7 | 0.00 | 0.00 | 0.00 | 64 | 1010.7 |
| 20260505000529 | 25 | 162 | 4.8 | 8.0 | 0.00 | 0.00 | 0.00 | 64 | 1010.7 |
| 20260505000026 | 25 | 143 | 8.0 | 11.3 | 0.00 | 0.00 | 0.00 | 64 | 1010.7 |
| 20260504235523 | 25 | 173 | 6.4 | 9.7 | 0.00 | 0.00 | 0.00 | 64 | 1010.3 |
| 20260504235020 | 25 | 174 | 3.2 | 8.0 | 0.00 | 0.00 | 0.00 | 63 | 1010.3 |
| 20260504234517 | 25 | 184 | 8.0 | 11.3 | 0.00 | 0.00 | 0.00 | 63 | 1010.7 |
| 20260504234014 | 25 | 167 | 4.8 | 4.8 | 0.00 | 0.00 | 0.00 | 63 | 1010.7 |
| 20260504233509 | 25 | 195 | 9.7 | 11.3 | 0.00 | 0.00 | 0.00 | 62 | 1010.7 |
| 20260504233006 | 25 | 149 | 6.4 | 11.3 | 0.00 | 0.00 | 0.00 | 61 | 1010.7 |
| 20260504232503 | 25 | 288 | 3.2 | 3.2 | 0.00 | 0.00 | 0.00 | 61 | 1010.7 |
| 20260504232001 | 25 | 170 | 11.3 | 12.9 | 0.00 | 0.00 | 0.00 | 60 | 1010.7 |
| 20260504231456 | 25 | 208 | 1.6 | 3.2 | 0.00 | 0.00 | 0.00 | 61 | 1010.7 |
| 20260504230953 | 25 | 153 | 8.0 | 9.7 | 0.00 | 0.00 | 0.00 | 60 | 1010.7 |
| 20260504230450 | 25 | 86 | 9.7 | 12.9 | 0.00 | 0.00 | 0.00 | 60 | 1010.7 |
| 20260504225949 | 26 | 230 | 11.3 | 12.9 | 0.00 | 0.00 | 0.00 | 60 | 1010.7 |
| 20260504225445 | 26 | 254 | 6.4 | 8.0 | 0.00 | 0.00 | 0.00 | 59 | 1010.7 |
| 20260504224942 | 26 | 114 | 6.4 | 11.3 | 0.00 | 0.00 | 0.00 | 60 | 1011.0 |
| 20260504224438 | 26 | 159 | 6.4 | 12.9 | 0.00 | 0.00 | 0.00 | 58 | 1011.0 |
| 20260504223936 | 26 | 120 | 4.8 | 4.8 | 0.00 | 0.00 | 0.00 | 61 | 1011.3 |
| 20260504223432 | 26 | 217 | 4.8 | 11.3 | 0.00 | 0.00 | 0.00 | 61 | 1011.3 |
| 20260504222927 | 25 | 132 | 3.2 | 3.2 | 0.00 | 0.00 | 0.00 | 61 | 1011.3 |
| 20260504222425 | 25 | 160 | 6.4 | 8.0 | 0.00 | 0.00 | 0.00 | 61 | 1011.3 |
| 20260504221923 | 26 | 170 | 16.1 | 20.9 | 0.00 | 0.00 | 0.00 | 60 | 1011.7 |
| 20260504221420 | 26 | 153 | 9.7 | 12.9 | 0.00 | 0.00 | 0.00 | 59 | 1011.0 |
| 20260504220917 | 26 | 102 | 4.8 | 4.8 | 0.00 | 0.00 | 0.00 | 59 | 1011.3 |
| 20260504220413 | 26 | 102 | 3.2 | 4.8 | 0.00 | 0.00 | 0.00 | 59 | 1011.3 |
| 20260504215910 | 26 | 163 | 8.0 | 12.9 | 0.00 | 0.00 | 0.00 | 58 | 1011.3 |
| 20260504215407 | 26 | 147 | 9.7 | 11.3 | 0.00 | 0.00 | 0.00 | 57 | 1011.7 |
| 20260504214903 | 26 | 268 | 4.8 | 4.8 | 0.00 | 0.00 | 0.00 | 57 | 1011.3 |
| 20260504214400 | 26 | 214 | 3.2 | 4.8 | 0.00 | 0.00 | 0.00 | 57 | 1011.3 |
| 20260504213857 | 26 | 191 | 6.4 | 9.7 | 0.00 | 0.00 | 0.00 | 57 | 1011.7 |
| 20260504213352 | 26 | 81 | 11.3 | 12.9 | 0.00 | 0.00 | 0.00 | 57 | 1011.3 |
| 20260504212850 | 26 | 190 | 6.4 | 8.0 | 0.00 | 0.00 | 0.00 | 57 | 1011.7 |
| 20260504212346 | 26 | 150 | 4.8 | 4.8 | 0.00 | 0.00 | 0.00 | 56 | 1011.7 |
| 20260504211844 | 27 | 154 | 8.0 | 12.9 | 0.00 | 0.00 | 0.00 | 55 | 1012.0 |
| 20260504211340 | 26 | 226 | 4.8 | 8.0 | 0.00 | 0.00 | 0.00 | 55 | 1011.7 |
| 20260504210838 | 27 | 139 | 8.0 | 14.5 | 0.00 | 0.00 | 0.00 | 54 | 1011.7 |
| 20260504210334 | 27 | 172 | 6.4 | 11.3 | 0.00 | 0.00 | 0.00 | 54 | 1012.0 |
| 20260504205832 | 27 | 129 | 9.7 | 12.9 | 0.00 | 0.00 | 0.00 | 53 | 1012.4 |
| 20260504205329 | 27 | 178 | 9.7 | 11.3 | 0.00 | 0.00 | 0.00 | 53 | 1012.0 |
| 20260504204827 | 27 | 111 | 11.3 | 16.1 | 0.00 | 0.00 | 0.00 | 54 | 1012.4 |
| 20260504204326 | 27 | 72 | 6.4 | 9.7 | 0.00 | 0.00 | 0.00 | 53 | 1012.0 |
| 20260504203824 | 28 | 172 | 6.4 | 11.3 | 0.00 | 0.00 | 0.00 | 51 | 1012.4 |
| 20260504203321 | 28 | 196 | 9.7 | 14.5 | 0.00 | 0.00 | 0.00 | 50 | 1012.4 |
| 20260504202817 | 28 | 172 | 8.0 | 14.5 | 0.00 | 0.00 | 0.00 | 49 | 1012.4 |
| 20260504202314 | 28 | 154 | 4.8 | 9.7 | 0.00 | 0.00 | 0.00 | 48 | 1012.4 |
| 20260504201811 | 28 | 139 | 4.8 | 4.8 | 0.00 | 0.00 | 0.00 | 50 | 1012.4 |
| 20260504201308 | 28 | 214 | 4.8 | 8.0 | 0.00 | 0.00 | 0.00 | 48 | 1012.7 |
| 20260504200805 | 28 | 334 | 1.6 | 3.2 | 0.00 | 0.00 | 0.00 | 49 | 1012.7 |
| 20260504200302 | 27 | 281 | 1.6 | 3.2 | 0.00 | 0.00 | 0.00 | 50 | 1012.7 |
| 20260504195758 | 27 | 176 | 8.0 | 9.7 | 0.00 | 0.00 | 0.00 | 48 | 1013.0 |
| 20260504195254 | 27 | 177 | 6.4 | 9.7 | 0.00 | 0.00 | 0.00 | 50 | 1013.0 |
| 20260504194751 | 27 | 185 | 4.8 | 4.8 | 0.00 | 0.00 | 0.00 | 50 | 1012.7 |
| 20260504194247 | 28 | 212 | 8.0 | 11.3 | 0.00 | 0.00 | 0.00 | 48 | 1013.0 |
| 20260504193743 | 27 | 321 | 3.2 | 3.2 | 0.00 | 0.00 | 0.00 | 49 | 1013.0 |
| 20260504193241 | 28 | 261 | 4.8 | 8.0 | 0.00 | 0.00 | 0.00 | 47 | 1013.4 |
| 20260504192739 | 28 | 220 | 8.0 | 12.9 | 0.00 | 0.00 | 0.00 | 45 | 1013.0 |
| 20260504192237 | 28 | 246 | 6.4 | 8.0 | 0.00 | 0.00 | 0.00 | 47 | 1013.4 |
| 20260504191736 | 28 | 166 | 3.2 | 3.2 | 0.00 | 0.00 | 0.00 | 45 | 1013.7 |
| 20260504191232 | 28 | 274 | 1.6 | 1.6 | 0.00 | 0.00 | 0.00 | 45 | 1013.7 |
| 20260504190727 | 28 | 172 | 3.2 | 4.8 | 0.00 | 0.00 | 0.00 | 45 | 1013.4 |
| 20260504190224 | 28 | 188 | 9.7 | 11.3 | 0.00 | 0.00 | 0.00 | 46 | 1013.7 |
| 20260504185721 | 28 | 267 | 8.0 | 11.3 | 0.00 | 0.00 | 0.00 | 45 | 1013.7 |
| 20260504185218 | 27 | 274 | 3.2 | 3.2 | 0.00 | 0.00 | 0.00 | 49 | 1013.7 |
| 20260504184713 | 27 | 174 | 6.4 | 11.3 | 0.00 | 0.00 | 0.00 | 48 | 1013.7 |
| 20260504184210 | 27 | 254 | 8.0 | 12.9 | 0.00 | 0.00 | 0.00 | 50 | 1014.1 |
| 20260504183706 | 27 | 132 | 11.3 | 14.5 | 0.00 | 0.00 | 0.00 | 50 | 1013.7 |
| 20260504183203 | 27 | 179 | 4.8 | 4.8 | 0.00 | 0.00 | 0.00 | 48 | 1013.7 |
| 20260504182701 | 27 | 169 | 11.3 | 12.9 | 0.00 | 0.00 | 0.00 | 48 | 1013.7 |
| 20260504182158 | 27 | 124 | 8.0 | 9.7 | 0.00 | 0.00 | 0.00 | 47 | 1014.1 |
| 20260504181655 | 27 | 211 | 4.8 | 4.8 | 0.00 | 0.00 | 0.00 | 46 | 1014.4 |
| 20260504181153 | 27 | 111 | 3.2 | 3.2 | 0.00 | 0.00 | 0.00 | 47 | 1014.4 |
| 20260504180652 | 27 | 200 | 6.4 | 9.7 | 0.00 | 0.00 | 0.00 | 47 | 1014.1 |
| 20260504180150 | 27 | 235 | 6.4 | 9.7 | 0.00 | 0.00 | 0.00 | 47 | 1014.4 |
| 20260504175647 | 27 | 95 | 6.4 | 9.7 | 0.00 | 0.00 | 0.00 | 48 | 1014.4 |
| 20260504175143 | 27 | 304 | 1.6 | 3.2 | 0.00 | 0.00 | 0.00 | 48 | 1014.1 |
| 20260504174642 | 27 | 229 | 4.8 | 9.7 | 0.00 | 0.00 | 0.00 | 46 | 1014.4 |
| 20260504174138 | 27 | 225 | 0.0 | 1.6 | 0.00 | 0.00 | 0.00 | 47 | 1014.4 |
| 20260504173635 | 27 | 187 | 4.8 | 8.0 | 0.00 | 0.00 | 0.00 | 47 | 1015.1 |
| 20260504173133 | 26 | 60 | 4.8 | 4.8 | 0.00 | 0.00 | 0.00 | 48 | 1014.4 |
| 20260504172629 | 26 | 200 | 6.4 | 11.3 | 0.00 | 0.00 | 0.00 | 47 | 1014.7 |
| 20260504172125 | 27 | 213 | 4.8 | 8.0 | 0.00 | 0.00 | 0.00 | 47 | 1015.1 |
| 20260504171622 | 26 | 246 | 3.2 | 8.0 | 0.00 | 0.00 | 0.00 | 49 | 1015.1 |
| 20260504171119 | 27 | 186 | 3.2 | 4.8 | 0.00 | 0.00 | 0.00 | 47 | 1015.1 |
| 20260504170615 | 26 | 138 | 4.8 | 4.8 | 0.00 | 0.00 | 0.00 | 50 | 1015.4 |
| 20260504170113 | 26 | 123 | 8.0 | 8.0 | 0.00 | 0.00 | 0.00 | 50 | 1015.1 |
| 20260504150952 | 24 | 269 | 6.4 | 9.7 | 0.00 | 0.00 | 0.00 | 55 | 1016.1 |
| 20260504150450 | 23 | 234 | 1.6 | 3.2 | 0.00 | 0.00 | 0.00 | 57 | 1015.7 |